Regional Weather Roundup
Issued by NWS Wakefield, VA

Home | Current Version | Previous Version | Text Only | Print | Product List | Glossary On
Versions: 1 2 3 4 5 6 7 8 9 10 11 12 13 14 15 16 17 18 19 20 21 22 23 24 25 26 27 28
000
ASUS41 KAKQ 240815
RWRAKQ

REGIONAL WEATHER ROUNDUP
NATIONAL WEATHER SERVICE WAKEFIELD VA
400 AM EDT WED MAY 24 2017

Note: "fair" indicates few or no clouds below 12,000 feet with no
significant weather and/or obstructions to visibility. * = Denotes
station may not report precipitation (e.g., rain,snow,etc.),
thunder or fog.

VAZ042-051-052>054-056-240900-
NORTHERN VIRGINIA

CITY           SKY/WX    TMP DP  RH WIND       PRES   REMARKS
WASH NATIONAL  LGT RAIN  59  57  93 NE8       29.71F
DULLES         LGT RAIN  59  57  93 SE6       29.71S FOG
FORT BELVOIR   LGT RAIN  58  56  92 CALM      29.71S
QUANTICO       LGT RAIN  59  55  87 E9        29.72F
FREDERICKSBRG* HVY RAIN  57  57 100 N5        29.71S
STAFFORD*      RAIN      56  56 100 NE3       29.76S
WARRENTON      DRIZZLE   59  56  91 CALM      29.71F
CULPEPER*      DRIZZLE   58  58  99 CALM      29.72F
MANASSAS*      LGT RAIN  59  57  93 E5        29.72S
LEESBURG*      LGT RAIN  59  59 100 CALM      29.72F
WINCHESTER     LGT RAIN  55  54  94 CALM      29.70F
FRONT ROYAL*   CLOUDY    55  55 100 CALM      29.69F
LURAY*         PTSUNNY   55  55 100 N3        29.70F
$$

VAZ048-049-060>072-079>083-240900-
CENTRAL AND SOUTH CENTRAL VIRGINIA

CITY           SKY/WX    TMP DP  RH WIND       PRES   REMARKS
RICHMOND       LGT RAIN  58  58 100 N8        29.68S FOG
CHESTERFIELD*  NOT AVBL
PETERSBURG*    DRIZZLE   58  58  98 CALM      29.67F
HANOVER        RAIN      58  55  90 VRB3      29.70F FOG
TAPPAHANNOCK*  RAIN      59  59 100 N5        29.69S
QUINTON*       CLOUDY    58  58 100 CALM      29.67S
CHARLOTTSVILLE CLOUDY    57  55  93 NE5       29.71F
GORDONSVILLE*  CLOUDY    55  55 100 NE5       29.71F FOG
ORANGE*        RAIN      54  54 100 CALM      29.71F
LOUISA*        CLOUDY    59  57  94 NE5       29.69F
BUMPASS*       CLOUDY    56  56 100 CALM      29.70F
FARMVILLE*     RAIN      59  57  91 N5        29.68F
CREWE*         CLOUDY    58  55  87 N6        29.67F
FORT PICKETT*  CLOUDY   N/A N/A N/A NE6       29.67F
CHASE CITY*    CLOUDY    60  58  95 CALM      29.68R
CLARKSVILLE*   CLOUDY    61  61 100 NE3       29.66S
SOUTH HILL*    CLOUDY    60  60 100 N5        29.72S
LAWRENCEVILLE* CLOUDY    60  59  97 CALM      29.67R
EMPORIA*       DRIZZLE   61  61 100 CALM      29.67S
$$

VAZ088>098-240900-
SOUTHEAST VIRGINIA

CITY           SKY/WX    TMP DP  RH WIND       PRES   REMARKS
NORFOLK        CLOUDY    61  60  97 NE9       29.64S FOG
VIRGINIA BEACH CLOUDY    60  58  92 NE8       29.63F
NORFOLK NAVAL  NOT AVBL
WEST POINT*    CLOUDY    59  58  97 N3        29.68S
SALUDA*        CLOUDY    59  59 100 N7        29.66F
NEWPORT NEWS   LGT RAIN  61  59  93 NE8       29.65S FOG
LANGLEY AFB    LGT RAIN  61  61 100 NE10      29.64S
FORT EUSTIS    DRIZZLE   61  59  94 NE5       29.63F
WILLIAMSBURG*  CLOUDY    63  63 100 CALM      29.67S
HR EXEC AP*    CLOUDY    63  59  88 NE5       29.62F
FRANKLIN*      CLOUDY    61  60  95 NE5       29.66S
US460-WAKEFLD  CLOUDY    61  61 100 E5        29.65F FOG
$$

VAZ020-022-025-037-045-240900-
WEST CENTRAL AND SOUTHWEST VIRGINIA

CITY           SKY/WX    TMP DP  RH WIND       PRES   REMARKS
STAUNTON*      DRIZZLE   56  55  97 NE5       29.72F
WAYNESBORO*    CLOUDY    56  56 100 CALM      29.71F
HOT SPRINGS VA RAIN      45  43  93 E7        29.72F VSB<1/4
LYNCHBURG      CLOUDY    59  57  93 NE9       29.70F
DANVILLE       CLOUDY    61  61 100 NE5       29.67F
SOUTH BOSTON*  CLOUDY    61  60  96 NE3       29.68R
MARTINSVILLE   CLOUDY    58  57  97 CALM      29.71S FOG
ROANOKE        LGT RAIN  58  57  97 CALM      29.70F
BLACKSBURG     CLOUDY    56  55  95 E8        29.73S
DUBLIN*        CLOUDY    57  55  92 E5        29.71R FOG
MARION*        CLOUDY    56  54  90 E7        29.71S FOG
HILLSVILLE*    FOG       55  51  86 CALM      29.67F VSB 3/4
RICHLANDS*     PTSUNNY   56  56 100 SE3       29.65F FOG
WISE*          MOCLDY    59  59 100 S5        29.66S
ABINGDON*      CLOUDY    61  61 100 E3        29.66R
$$

MDZ021>025-VAZ099-100-240900-
SOUTHERN MARYLAND AND THE DELMARVA PENINSULA

CITY           SKY/WX    TMP DP  RH WIND       PRES   REMARKS
PATUXENT RIVER CLOUDY    58  58 100 NE9       29.69S
BAY BRIDGE APT LGT RAIN  57  54  88 NE5       29.71S
LEONARDTOWN    CLOUDY    55  54  94 NE5       29.70F
DOVER          CLOUDY    57  57 100 N7        29.70S
GEORGETOWN     LGT RAIN  59  57  93 NE5       29.69F
EASTON         RAIN      57  54  90 NE7       29.74F
CAMBRIDGE        N/A     57  57 100 NE5       29.69F FOG
SALISBURY      CLOUDY    57  57 100 N7        29.67F
OCEAN CITY     LGT RAIN  58  57  97 NE13      29.67F FOG
WALLOPS ISLAND LGT RAIN  57  57 100 N10       29.66F
ACCOMACK*      CLOUDY    59  42  53 N6        29.65S
$$

NCZ012>017-030>032-240900-
NORTH CENTRAL AND EASTERN NORTH CAROLINA

CITY           SKY/WX    TMP DP  RH WIND       PRES   REMARKS
ROANOKE RAPIDS DRIZZLE   61  61 100 CALM      29.65S
RALEIGH        MOCLDY    65  64  97 CALM      29.66F
ELIZABETH CITY LGT RAIN  64  64 100 N7        29.63F
AHOSKIE*         N/A     61  60  98 CALM      29.65F
EDENTON*       CLOUDY    67  65  93 CALM      29.65S
CURRITUCK*     CLOUDY   N/A N/A N/A CALM      29.65S
KILL DEVIL HLS CLOUDY    70  70 100 CALM      29.62F
MANTEO         CLOUDY    70  68  94 SW7       29.64F
CAPE HATTERAS  CLOUDY    73  69  87 SW16G25   29.66F
TARBORO*       NOT AVBL
GOLDSBORO      CLOUDY    68  68 100 W6        29.64S
WASHINGTON     CLOUDY    67  67  97 W6        29.65R
GREENVILLE     CLOUDY    68  66  94 SW5       29.68S
NEW BERN       CLOUDY    69  68  96 SW7       29.66S
WILMINGTON     CLOUDY    70  69  97 W8        29.68R
$$

VAZ048-240900-
ELSEWHERE

CITY           SKY/WX    TMP DP  RH WIND       PRES   REMARKS
HARRISBURG PA  LGT RAIN  57  57 100 CALM      29.72S FOG
BALTIMORE      LGT RAIN  58  57  97 E9        29.70F
ANNAPOLIS      CLOUDY    59  56  89 NE6       29.70F
ANDREWS AFB    LGT RAIN  57  54  90 E6        29.70F
PHILADELPHIA   CLOUDY    57  51  80 E7        29.72F
HENDERSON NC   CLOUDY    59  58  97 CALM      29.67R FOG
GREENSBORO     LGT RAIN  60  60 100 NE6       29.65F FOG
ROCKY MOUNT    CLOUDY    64  64 100 CALM      29.64F
$$

VAZ100-240900-
MARINE

STATION/POSITION TIME  TEMP    WIND        PRES    WAVE   SWELL
                       AIR SEA DIR/SP/G            HT/PER HT/PER
                 (UTC) (F)     (DEG/KT/KT) (MB)    (FT/S) (FT/S)
CAPE MAY NJ      0748   58 60   40/  4/  6 1004.8F
LEWES DE         0748   59 62   60/ 13/ 14 1005.0F
15NM E FENWICK I 0750   57 56   20/ 16/ 17 1004.5F   4/ 4   2/10
WACHAPREAGUE VA  0748   59 65   10/  6/ 13 1003.4F
THOMAS POINT MD  0800   58 65   50/  8/  9   N/A
GOOSES REEF MD   0800   59 63   40/ 14/ 16 1006.0    1/ 3
COVE POINT MD    0748   57      60/ 14/ 17 1005.8F
SOLOMONS ISLAND  0748   58 67   30/  7/  9   N/A
BISHOPS HEAD MD  0748   58 65   30/ 13/ 16 1005.4F
PINEY POINT MD   0748           70/  5/  7   N/A
POTOMAC MD       0800   60 66   50/ 14/ 17 1004.0    1
CAMBRIDGE MD     0742   58 68                N/A
LEWISETTA VA     0748   59 67   60/ 11/ 15 1004.9F
RAPPAHANNOCK LGT 0748           10/ 20/ 21 1004.3F
STINGRAY PT      0750   62      50/ 16/ 19 1004.3F
YORK RVR RNG VA  0748   62      40/ 14/ 17 1003.1F
YORKTOWN VA      0748   61 68   30/  7/ 11 1003.8R
JAMESTOWN VA     0800   61 72   20/  4/  8   N/A     0
DOMINION TERM VA 0748   62      40/  5/  7 1003.9F
KIPTOPEKE VA     0748      65   50/  5/ 13   N/A
CHES BAY BRIDGE  0748   62 67   40/ 13/ 15 1003.3F
CAPE HENRY VA    0748   61      20/ 15/ 17   N/A
WILLOUBY STN VA  0748   62      40/ 14/ 16 1003.6F
S CRANEY ISL VA  0748   62      50/ 11/ 13 1003.4F
CAPE HENRY BUOY  0742      61                N/A     4/ 5
1ST LANDING BUOY 0800   62 66              1003.9    3/ 3
CAPE CHARLES BUO 0751      62                N/A     4/ 5
64NM E OF VA BCH 0750   67 64  220/ 14/ 16 1003.4F   5/ 7   3/ 7
DUCK PIER NC     0748   71 61  230/ 11/ 14 1002.6F
44100 DUCK FRF   0705      65                N/A     5/ 7   2/11
44056 DUCK FRF   0730      65                N/A     3/ 7   2/12
OREGON INLET NC  0742   72 69  210/ 18/ 22 1003.0F
HATTERAS NC      0748   72 73  210/ 14/ 17 1004.2F
DIAMOND SHLS NC  0750   74 74  210/ 21/ 25 1004.4F   5/ 5   2/11
CAPE LOOKOUT NC  0800   72     240/ 12/ 16 1004.0R
$$




USA.gov is the U.S. government's official web portal to all federal, state and local government web resources and services.